2022-03-07 00:03:00 r, 20.18m,0000000001Hz,0000643875c,0000001.397s,-003.0C,00002191
2022-03-07 00:13:03 r, 20.18m,0000000001Hz,0000644384c,0000001.398s,-003.3C,00002191
2022-03-07 00:23:00 r, 20.18m,0000000000Hz,0000641483c,0000001.392s,-003.6C,00002191
2022-03-07 00:33:00 r, 20.17m,0000000001Hz,0000637355c,0000001.383s,-003.6C,00002191
2022-03-07 00:43:03 r, 20.16m,0000000000Hz,0000633228c,0000001.374s,-003.6C,00002191
2022-03-07 00:53:00 r, 20.16m,0000000000Hz,0000632652c,0000001.373s,-003.6C,00002191
2022-03-07 01:03:03 r, 20.15m,0000000001Hz,0000630475c,0000001.368s,-003.6C,00002191
2022-03-07 01:13:01 r, 20.15m,0000000000Hz,0000630740c,0000001.369s,-003.6C,00002191
2022-03-07 01:23:00 r, 20.15m,0000000001Hz,0000625724c,0000001.358s,-003.6C,00002191
2022-03-07 01:33:03 r, 20.15m,0000000001Hz,0000629830c,0000001.367s,-003.6C,00002191
2022-03-07 01:43:01 r, 20.15m,0000000000Hz,0000627780c,0000001.362s,-003.3C,00002191
2022-03-07 01:53:00 r, 20.15m,0000000001Hz,0000627800c,0000001.362s,-003.3C,00002191
2022-03-07 02:03:01 r, 20.15m,0000000000Hz,0000626782c,0000001.360s,-003.3C,00002191
2022-03-07 02:13:01 r, 20.15m,0000000001Hz,0000626006c,0000001.359s,-003.3C,00002191
2022-03-07 02:23:00 r, 20.15m,0000000001Hz,0000626841c,0000001.360s,-003.3C,00002191
2022-03-07 02:33:00 r, 20.15m,0000000001Hz,0000626923c,0000001.361s,-003.3C,00002191
2022-03-07 02:43:03 r, 20.15m,0000000001Hz,0000629472c,0000001.366s,-003.0C,00002191
2022-03-07 02:53:00 r, 20.16m,0000000001Hz,0000632603c,0000001.373s,-003.0C,00002191
2022-03-07 03:03:03 r, 20.16m,0000000001Hz,0000634495c,0000001.377s,-003.3C,00002191
2022-03-07 03:13:01 r, 20.16m,0000000001Hz,0000634479c,0000001.377s,-003.3C,00002191
2022-03-07 03:23:00 r, 20.16m,0000000001Hz,0000631785c,0000001.371s,-003.6C,00002191
2022-03-07 03:33:03 r, 20.16m,0000000000Hz,0000631633c,0000001.371s,-003.6C,00002191
2022-03-07 03:43:01 r, 20.11m,0000000001Hz,0000603858c,0000001.310s,-003.6C,00002191
2022-03-07 03:53:00 r, 20.01m,0000000001Hz,0000552109c,0000001.198s,-003.6C,00002191
2022-03-07 04:03:01 r, 20.08m,0000000001Hz,0000585878c,0000001.271s,-003.6C,00002191
2022-03-07 04:13:02 r, 20.00m,0000000001Hz,0000541909c,0000001.176s,-003.6C,00002191
2022-03-07 04:23:00 r, 20.00m,0000000001Hz,0000542292c,0000001.177s,-003.6C,00002191
2022-03-07 04:33:02 r, 19.85m,0000000001Hz,0000474408c,0000001.030s,-003.6C,00002191
2022-03-07 04:43:01 r, 19.86m,0000000001Hz,0000478063c,0000001.037s,-003.6C,00002191
2022-03-07 04:53:00 r, 19.98m,0000000000Hz,0000534847c,0000001.161s,-003.9C,00002191
2022-03-07 05:03:01 r, 20.12m,0000000001Hz,0000607814c,0000001.319s,-003.9C,00002191
2022-03-07 05:13:03 r, 20.11m,0000000001Hz,0000605746c,0000001.315s,-003.6C,00002191
2022-03-07 05:23:00 r, 20.09m,0000000001Hz,0000593279c,0000001.287s,-003.6C,00002191
2022-03-07 05:33:03 r, 20.02m,0000000001Hz,0000555951c,0000001.206s,-003.9C,00002191
2022-03-07 05:43:01 r, 19.79m,0000000001Hz,0000446553c,0000000.969s,-003.9C,00002191
2022-03-07 05:53:00 r, 19.11m,0000000002Hz,0000240039c,0000000.521s,-003.9C,00002191
2022-03-07 06:03:03 r, 17.87m,0000000006Hz,0000077543c,0000000.168s,-004.6C,00002191
2022-03-07 06:13:01 r, 16.23m,0000000027Hz,0000017097c,0000000.037s,-004.6C,00002191
2022-03-07 06:23:00 r, 14.21m,0000000175Hz,0000000000c,0000000.000s,-004.6C,00002191
2022-03-07 06:33:01 r, 12.04m,0000001297Hz,0000000000c,0000000.000s,-004.6C,00002191
2022-03-07 06:43:02 r, 10.04m,0000008134Hz,0000000000c,0000000.000s,-004.6C,00002191
2022-03-07 06:53:00 r, 08.50m,0000033594Hz,0000000000c,0000000.000s,-004.2C,00002191
2022-03-07 07:03:00 r, 07.41m,0000092061Hz,0000000000c,0000000.000s,-004.2C,00002191
2022-03-07 07:13:03 r, 06.67m,0000181467Hz,0000000000c,0000000.000s,-004.2C,00002191
2022-03-07 07:23:00 r, 06.17m,0000288955Hz,0000000000c,0000000.000s,-004.2C,00002191
2022-03-07 07:33:00 r, 00.00m,0000486252Hz,0000000000c,0000000.000s,-003.9C,00002191
2022-03-07 07:43:03 r, 00.00m,0000599346Hz,0000000000c,0000000.000s,-002.6C,00002191
2022-03-07 07:53:00 r, 00.00m,0000599280Hz,0000000000c,0000000.000s,-001.3C,00002191
2022-03-07 08:03:00 r, 00.00m,0000599040Hz,0000000000c,0000000.000s, 000.1C,00002191
2022-03-07 08:13:01 r, 00.00m,0000599011Hz,0000000000c,0000000.000s, 001.2C,00002191
2022-03-07 08:23:00 r, 00.00m,0000598986Hz,0000000000c,0000000.000s, 002.2C,00002191
2022-03-07 08:33:00 r, 00.00m,0000598849Hz,0000000000c,0000000.000s, 002.9C,00002191
2022-03-07 08:43:01 r, 00.00m,0000598752Hz,0000000000c,0000000.000s, 003.5C,00002191
2022-03-07 08:53:00 r, 00.00m,0000598796Hz,0000000000c,0000000.000s, 004.1C,00002191
2022-03-07 09:03:00 r, 00.00m,0000598642Hz,0000000000c,0000000.000s, 005.4C,00002191
2022-03-07 09:13:01 r, 00.00m,0000598685Hz,0000000000c,0000000.000s, 005.4C,00002191
2022-03-07 09:23:00 r, 00.00m,0000598716Hz,0000000000c,0000000.000s, 005.1C,00002191
2022-03-07 09:33:00 r, 00.00m,0000598658Hz,0000000000c,0000000.000s, 005.8C,00002191
2022-03-07 09:43:03 r, 00.00m,0000598509Hz,0000000000c,0000000.000s, 006.7C,00002191
2022-03-07 09:53:00 r, 00.00m,0000598341Hz,0000000000c,0000000.000s, 008.0C,00002191
2022-03-07 10:03:00 r, 00.00m,0000598265Hz,0000000000c,0000000.000s, 008.7C,00002191
2022-03-07 10:13:01 r, 00.00m,0000598260Hz,0000000000c,0000000.000s, 009.0C,00002191
2022-03-07 10:23:00 r, 00.00m,0000598142Hz,0000000000c,0000000.000s, 010.6C,00002191
2022-03-07 10:33:00 r, 00.00m,0000597889Hz,0000000000c,0000000.000s, 012.5C,00002191
2022-03-07 10:43:01 r, 00.00m,0000597818Hz,0000000000c,0000000.000s, 013.5C,00002191
2022-03-07 10:53:03 r, 00.00m,0000597744Hz,0000000000c,0000000.000s, 013.8C,00002191
2022-03-07 11:03:00 r, 00.00m,0000597663Hz,0000000000c,0000000.000s, 013.8C,00002191
2022-03-07 11:13:02 r, 00.00m,0000597632Hz,0000000000c,0000000.000s, 014.1C,00002191
2022-03-07 11:23:01 r, 00.00m,0000597690Hz,0000000000c,0000000.000s, 013.5C,00002191
2022-03-07 11:33:00 r, 00.00m,0000597588Hz,0000000000c,0000000.000s, 014.1C,00002191
2022-03-07 11:43:03 r, 00.00m,0000597624Hz,0000000000c,0000000.000s, 014.1C,00002191
2022-03-07 11:53:01 r, 00.00m,0000597699Hz,0000000000c,0000000.000s, 014.1C,00002191
2022-03-07 12:03:00 r, 00.00m,0000597547Hz,0000000000c,0000000.000s, 015.1C,00002191
2022-03-07 12:13:03 r, 00.00m,0000597578Hz,0000000000c,0000000.000s, 015.7C,00002191
2022-03-07 12:23:01 r, 00.00m,0000597376Hz,0000000000c,0000000.000s, 016.4C,00002191
2022-03-07 12:33:00 r, 00.00m,0000597379Hz,0000000000c,0000000.000s, 016.7C,00002191
2022-03-07 12:43:01 r, 00.00m,0000597032Hz,0000000000c,0000000.000s, 018.6C,00002191
2022-03-07 12:53:02 r, 00.00m,0000596924Hz,0000000000c,0000000.000s, 019.6C,00002191
2022-03-07 13:03:00 r, 00.00m,0000596949Hz,0000000000c,0000000.000s, 019.9C,00002191
2022-03-07 13:13:02 r, 00.00m,0000596979Hz,0000000000c,0000000.000s, 019.6C,00002191
2022-03-07 13:23:01 r, 00.00m,0000596925Hz,0000000000c,0000000.000s, 019.6C,00002191
2022-03-07 13:33:00 r, 00.00m,0000597065Hz,0000000000c,0000000.000s, 019.6C,00002191
2022-03-07 13:43:01 r, 00.00m,0000597001Hz,0000000000c,0000000.000s, 019.9C,00002191
2022-03-07 13:53:03 r, 00.00m,0000597024Hz,0000000000c,0000000.000s, 019.3C,00002191
2022-03-07 14:03:00 r, 00.00m,0000596998Hz,0000000000c,0000000.000s, 019.9C,00002191
2022-03-07 14:13:03 r, 00.00m,0000597014Hz,0000000000c,0000000.000s, 019.9C,00002191
2022-03-07 14:23:01 r, 00.00m,0000596878Hz,0000000000c,0000000.000s, 020.3C,00002191
2022-03-07 14:33:00 r, 00.00m,0000596922Hz,0000000000c,0000000.000s, 020.3C,00002191
2022-03-07 14:43:03 r, 00.00m,0000596977Hz,0000000000c,0000000.000s, 019.9C,00002191
2022-03-07 14:53:01 r, 00.00m,0000596976Hz,0000000000c,0000000.000s, 019.3C,00002191
2022-03-07 15:03:00 r, 00.00m,0000597143Hz,0000000000c,0000000.000s, 018.6C,00002191
2022-03-07 15:13:01 r, 00.00m,0000597139Hz,0000000000c,0000000.000s, 017.7C,00002191
2022-03-07 15:23:02 r, 00.00m,0000597198Hz,0000000000c,0000000.000s, 017.7C,00002191
2022-03-07 15:33:00 r, 00.00m,0000597394Hz,0000000000c,0000000.000s, 017.0C,00002191
2022-03-07 15:43:02 r, 00.00m,0000597467Hz,0000000000c,0000000.000s, 016.4C,00002191
2022-03-07 15:53:01 r, 00.00m,0000597430Hz,0000000000c,0000000.000s, 015.1C,00002191
2022-03-07 16:03:00 r, 00.00m,0000597414Hz,0000000000c,0000000.000s, 015.1C,00002191
2022-03-07 16:13:01 r, 00.00m,0000597668Hz,0000000000c,0000000.000s, 014.8C,00002191
2022-03-07 16:23:03 r, 00.00m,0000597742Hz,0000000000c,0000000.000s, 013.8C,00002191
2022-03-07 16:33:00 r, 00.00m,0000597775Hz,0000000000c,0000000.000s, 013.2C,00002191
2022-03-07 16:43:00 r, 00.00m,0000597878Hz,0000000000c,0000000.000s, 012.5C,00002191
2022-03-07 16:53:01 r, 00.00m,0000597905Hz,0000000000c,0000000.000s, 012.2C,00002191
2022-03-07 17:03:00 r, 00.00m,0000597946Hz,0000000000c,0000000.000s, 011.6C,00002191
2022-03-07 17:13:01 r, 00.00m,0000598014Hz,0000000000c,0000000.000s, 011.2C,00002191
2022-03-07 17:23:02 r, 00.00m,0000598167Hz,0000000000c,0000000.000s, 010.6C,00002191
2022-03-07 17:33:00 r, 00.00m,0000598048Hz,0000000000c,0000000.000s, 010.3C,00002191
2022-03-07 17:43:00 r, 00.00m,0000598118Hz,0000000000c,0000000.000s, 009.9C,00002191
2022-03-07 17:53:03 r, 00.00m,0000414759Hz,0000000000c,0000000.000s, 009.3C,00002191
2022-03-07 18:03:00 r, 06.39m,0000233579Hz,0000000000c,0000000.000s, 008.0C,00002191
2022-03-07 18:13:02 r, 07.23m,0000108692Hz,0000000000c,0000000.000s, 007.4C,00002191
2022-03-07 18:23:01 r, 08.08m,0000049268Hz,0000000000c,0000000.000s, 006.4C,00002191
2022-03-07 18:33:00 r, 09.43m,0000014237Hz,0000000000c,0000000.000s, 006.1C,00002191
2022-03-07 18:43:03 r, 11.35m,0000002434Hz,0000000000c,0000000.000s, 005.8C,00002191
2022-03-07 18:53:01 r, 13.55m,0000000320Hz,0000000000c,0000000.000s, 005.4C,00002191
2022-03-07 19:03:00 r, 15.79m,0000000041Hz,0000011288c,0000000.024s, 005.4C,00002191
2022-03-07 19:13:03 r, 17.51m,0000000008Hz,0000055748c,0000000.121s, 005.4C,00002191
2022-03-07 19:23:01 r, 18.65m,0000000003Hz,0000158233c,0000000.343s, 005.4C,00002191
2022-03-07 19:33:00 r, 19.03m,0000000002Hz,0000223999c,0000000.486s, 005.4C,00002191
2022-03-07 19:43:01 r, 19.19m,0000000001Hz,0000259114c,0000000.562s, 005.4C,00002191
2022-03-07 19:53:02 r, 18.76m,0000000003Hz,0000174535c,0000000.379s, 005.4C,00002191
2022-03-07 20:03:00 r, 18.36m,0000000004Hz,0000120630c,0000000.262s, 005.4C,00002191
2022-03-07 20:13:02 r, 18.99m,0000000002Hz,0000216732c,0000000.470s, 005.8C,00002191
2022-03-07 20:23:01 r, 18.97m,0000000002Hz,0000212878c,0000000.462s, 005.8C,00002191
2022-03-07 20:33:00 r, 18.38m,0000000004Hz,0000123698c,0000000.268s, 005.8C,00002191
2022-03-07 20:43:01 r, 18.51m,0000000003Hz,0000139766c,0000000.303s, 006.1C,00002191
2022-03-07 20:53:03 r, 18.57m,0000000004Hz,0000147305c,0000000.320s, 006.4C,00002191
2022-03-07 21:03:00 r, 18.63m,0000000003Hz,0000155681c,0000000.338s, 006.4C,00002191
2022-03-07 21:13:00 r, 18.75m,0000000003Hz,0000173378c,0000000.376s, 006.7C,00002191
2022-03-07 21:23:01 r, 18.18m,0000000004Hz,0000102917c,0000000.223s, 006.7C,00002191
2022-03-07 21:33:00 r, 18.18m,0000000005Hz,0000103249c,0000000.224s, 007.0C,00002191
2022-03-07 21:43:03 r, 18.27m,0000000004Hz,0000111579c,0000000.242s, 007.4C,00002191
2022-03-07 21:53:01 r, 17.61m,0000000008Hz,0000060696c,0000000.132s, 007.7C,00002191
2022-03-07 22:03:00 r, 16.88m,0000000015Hz,0000030860c,0000000.067s, 008.0C,00002191
2022-03-07 22:13:01 r, 16.78m,0000000016Hz,0000028259c,0000000.061s, 008.0C,00002191
2022-03-07 22:23:02 r, 16.98m,0000000014Hz,0000034085c,0000000.074s, 008.0C,00002191
2022-03-07 22:33:00 r, 16.97m,0000000014Hz,0000033781c,0000000.073s, 008.3C,00002191
2022-03-07 22:43:00 r, 17.12m,0000000011Hz,0000038800c,0000000.084s, 008.3C,00002191
2022-03-07 22:53:03 r, 17.29m,0000000010Hz,0000045297c,0000000.098s, 008.7C,00002191
2022-03-07 23:03:00 r, 17.64m,0000000007Hz,0000062361c,0000000.135s, 008.7C,00002191
2022-03-07 23:13:02 r, 17.78m,0000000006Hz,0000070626c,0000000.153s, 009.0C,00002191
2022-03-07 23:23:01 r, 18.47m,0000000004Hz,0000133301c,0000000.289s, 009.0C,00002191
2022-03-07 23:33:00 r, 18.86m,0000000003Hz,0000191130c,0000000.415s, 009.3C,00002191
2022-03-07 23:43:00 r, 19.89m,0000000001Hz,0000490528c,0000001.065s, 009.3C,00002191
2022-03-07 23:53:01 r, 19.48m,0000000001Hz,0000336956c,0000000.731s, 009.0C,00002191
